When you browse on this site, cookies collect data to enhance your experience and personalize the content and advertising you see.
Visit our Privacy Policy to learn more. By continuing to use the site, you agree to this use of cookies and data.
  • en France
  • Liste des pays
  • À 7 jours
  • Température de l'eau
  • Carte satellitaire
  • Carte météo
  • Widgets météo
  • user-avatar
    Se connecter

    Météo par heure à Byala

    Ce jour, 16 Février, Samedi

    Heure Température Précipitation Vent Pression Humidité
    00:00 0°C° 0 mm 7 m/s 761 mmHg 72%
    01:00 -1°C° 0 mm 7 m/s 761 mmHg 74%
    02:00 -1°C° 0 mm 6 m/s 761 mmHg 76%
    03:00 -1°C° 0 mm 6 m/s 761 mmHg 77%
    04:00 -2°C° 0 mm 6 m/s 761 mmHg 78%
    05:00 -2°C° 0 mm 6 m/s 761 mmHg 80%
    06:00 -2°C° 0 mm 6 m/s 761 mmHg 80%
    07:00 -2°C° 0 mm 6 m/s 761 mmHg 80%
    08:00 -2°C° 0 mm 6 m/s 762 mmHg 80%
    09:00 -1°C° 0 mm 6 m/s 762 mmHg 76%
    10:00 +2°C° 0 mm 6 m/s 762 mmHg 71%
    11:00 +3°C° 0 mm 6 m/s 762 mmHg 66%
    12:00 +5°C° 0 mm 5 m/s 762 mmHg 63%
    13:00 +6°C° 0 mm 5 m/s 762 mmHg 60%
    14:00 +7°C° 0 mm 5 m/s 762 mmHg 56%
    15:00 +6°C° 0 mm 4 m/s 761 mmHg 59%
    16:00 +6°C° 0 mm 4 m/s 761 mmHg 61%
    17:00 +6°C° 0 mm 4 m/s 761 mmHg 63%
    18:00 +5°C° 0 mm 4 m/s 761 mmHg 66%
    19:00 +4°C° 0 mm 4 m/s 761 mmHg 70%
    20:00 +4°C° 0 mm 4 m/s 761 mmHg 73%
    21:00 +3°C° 0 mm 3 m/s 761 mmHg 74%
    22:00 +3°C° 0 mm 3 m/s 761 mmHg 75%
    23:00 +3°C° 0 mm 3 m/s 761 mmHg 76%

    Demain, 17 Février, Dimanche

    Heure Température Précipitation Vent Pression Humidité
    00:00 +3°C° 0 mm 3 m/s 761 mmHg 76%
    01:00 +2°C° 0 mm 3 m/s 761 mmHg 76%
    02:00 +2°C° 0 mm 3 m/s 761 mmHg 76%
    03:00 +2°C° 0 mm 3 m/s 761 mmHg 76%
    04:00 +2°C° 0 mm 3 m/s 760 mmHg 76%
    05:00 +2°C° 0 mm 3 m/s 760 mmHg 76%
    06:00 +3°C° 0 mm 2 m/s 760 mmHg 75%
    07:00 +3°C° 0 mm 2 m/s 760 mmHg 75%
    08:00 +3°C° 0 mm 2 m/s 760 mmHg 74%
    09:00 +5°C° 0 mm 2 m/s 760 mmHg 67%
    10:00 +6°C° 0 mm 2 m/s 760 mmHg 60%
    11:00 +9°C° 0 mm 1 m/s 760 mmHg 53%
    12:00 +10°C° 0 mm 1 m/s 760 mmHg 51%
    13:00 +11°C° 0 mm 1 m/s 759 mmHg 48%
    14:00 +12°C° 0 mm 1 m/s 759 mmHg 45%
    15:00 +12°C° 0 mm 1 m/s 759 mmHg 48%
    16:00 +12°C° 0 mm 1 m/s 758 mmHg 51%
    17:00 +11°C° 0 mm 1 m/s 758 mmHg 53%
    18:00 +10°C° 0 mm 1 m/s 758 mmHg 56%
    19:00 +8°C° 0 mm 2 m/s 758 mmHg 59%
    20:00 +7°C° 0 mm 2 m/s 758 mmHg 62%
    21:00 +7°C° 0 mm 2 m/s 758 mmHg 63%
    22:00 +7°C° 0 mm 2 m/s 758 mmHg 65%
    23:00 +6°C° 0 mm 2 m/s 758 mmHg 66%

    Après-demain, 18 Février, Lundi

    Heure Température Précipitation Vent Pression Humidité
    00:00 +6°C° 0 mm 2 m/s 758 mmHg 65%
    01:00 +6°C° 0 mm 2 m/s 758 mmHg 65%
    02:00 +5°C° 0 mm 2 m/s 757 mmHg 65%
    03:00 +5°C° 0 mm 2 m/s 757 mmHg 64%
    04:00 +4°C° 0 mm 3 m/s 757 mmHg 64%
    05:00 +4°C° 0 mm 3 m/s 757 mmHg 63%
    06:00 +4°C° 0 mm 3 m/s 757 mmHg 63%
    07:00 +4°C° 0 mm 3 m/s 757 mmHg 64%
    08:00 +4°C° 0 mm 3 m/s 758 mmHg 64%
    09:00 +7°C° 0 mm 3 m/s 758 mmHg 61%
    10:00 +8°C° 0 mm 2 m/s 758 mmHg 57%
    11:00 +10°C° 0 mm 2 m/s 758 mmHg 53%
    12:00 +12°C° 0 mm 2 m/s 758 mmHg 50%
    13:00 +13°C° 0 mm 1 m/s 758 mmHg 48%
    14:00 +14°C° 0 mm 1 m/s 758 mmHg 45%
    15:00 +13°C° 0 mm 1 m/s 758 mmHg 49%
    16:00 +13°C° 0 mm 2 m/s 757 mmHg 54%
    17:00 +12°C° 0 mm 2 m/s 757 mmHg 58%
    18:00 +10°C° 0 mm 2 m/s 758 mmHg 64%
    19:00 +9°C° 0 mm 2 m/s 758 mmHg 70%
    20:00 +8°C° 0 mm 2 m/s 758 mmHg 76%
    21:00 +8°C° 0 mm 1 m/s 758 mmHg 78%
    22:00 +8°C° 0 mm 1 m/s 758 mmHg 81%
    23:00 +8°C° 0 mm 1 m/s 759 mmHg 83%

    19 Février, Mardi

    Heure Température Précipitation Vent Pression Humidité
    00:00 +7°C° 0 mm 1 m/s 759 mmHg 84%
    01:00 +7°C° 0 mm 1 m/s 759 mmHg 85%
    02:00 +7°C° 0 mm 1 m/s 759 mmHg 87%
    03:00 +7°C° 0 mm 1 m/s 759 mmHg 87%
    04:00 +7°C° 0 mm 1 m/s 759 mmHg 88%
    05:00 +6°C° 0 mm 1 m/s 758 mmHg 88%
    06:00 +7°C° 0 mm 1 m/s 759 mmHg 88%
    07:00 +7°C° 0 mm 1 m/s 759 mmHg 89%
    08:00 +6°C° 0 mm 2 m/s 759 mmHg 89%
    09:00 +7°C° 0 mm 2 m/s 759 mmHg 82%
    10:00 +9°C° 0 mm 3 m/s 759 mmHg 76%
    11:00 +10°C° 0 mm 3 m/s 760 mmHg 69%
    12:00 +11°C° 0 mm 3 m/s 759 mmHg 67%
    13:00 +11°C° 0 mm 4 m/s 759 mmHg 65%
    14:00 +12°C° 0 mm 4 m/s 759 mmHg 63%
    15:00 +11°C° 0 mm 4 m/s 758 mmHg 67%
    16:00 +10°C° 0 mm 4 m/s 758 mmHg 72%
    17:00 +10°C° 0 mm 4 m/s 758 mmHg 76%
    18:00 +8°C° 0 mm 4 m/s 758 mmHg 80%
    19:00 +7°C° 0 mm 4 m/s 758 mmHg 84%
    20:00 +7°C° 0 mm 4 m/s 758 mmHg 88%
    21:00 +6°C° 0 mm 4 m/s 758 mmHg 89%
    22:00 +6°C° 0 mm 4 m/s 758 mmHg 89%
    23:00 +6°C° 0 mm 4 m/s 758 mmHg 90%

    20 Février, Mercredi

    Heure Température Précipitation Vent Pression Humidité
    00:00 +7°C° 0 mm 3 m/s 758 mmHg 90%
    01:00 +5°C° 0 mm 3 m/s 758 mmHg 91%
    02:00 +5°C° 0 mm 3 m/s 757 mmHg 91%
    03:00 +5°C° 0 mm 3 m/s 757 mmHg 91%
    04:00 +5°C° 0 mm 3 m/s 757 mmHg 91%
    05:00 +5°C° 0 mm 3 m/s 757 mmHg 91%
    06:00 +5°C° 0 mm 3 m/s 757 mmHg 90%
    07:00 +5°C° 0 mm 3 m/s 757 mmHg 89%
    08:00 +5°C° 0 mm 3 m/s 757 mmHg 88%
    09:00 +7°C° 0 mm 3 m/s 757 mmHg 79%
    10:00 +9°C° 0 mm 3 m/s 757 mmHg 71%
    11:00 +11°C° 0 mm 3 m/s 757 mmHg 62%
    12:00 +12°C° 0 mm 3 m/s 757 mmHg 57%
    13:00 +14°C° 0 mm 2 m/s 757 mmHg 52%
    14:00 +15°C° 0 mm 2 m/s 756 mmHg 47%
    15:00 +15°C° 0 mm 2 m/s 756 mmHg 49%
    16:00 +14°C° 0 mm 3 m/s 756 mmHg 51%
    17:00 +13°C° 0 mm 3 m/s 756 mmHg 53%
    18:00 +12°C° 0 mm 3 m/s 756 mmHg 56%
    19:00 +12°C° 0 mm 2 m/s 756 mmHg 60%
    20:00 +10°C° 0 mm 2 m/s 757 mmHg 63%
    21:00 +10°C° 0 mm 2 m/s 757 mmHg 62%
    22:00 +9°C° 0 mm 2 m/s 757 mmHg 62%
    23:00 +9°C° 0 mm 2 m/s 757 mmHg 62%

    21 Février, Jeudi

    Heure Température Précipitation Vent Pression Humidité
    00:00 +8°C° 0 mm 3 m/s 757 mmHg 64%
    01:00 +8°C° 0 mm 3 m/s 757 mmHg 66%
    02:00 +8°C° 0 mm 3 m/s 757 mmHg 68%
    03:00 +7°C° 0 mm 3 m/s 757 mmHg 70%
    04:00 +6°C° 0 mm 4 m/s 757 mmHg 72%
    05:00 +5°C° 0 mm 4 m/s 757 mmHg 74%
    06:00 +5°C° 0 mm 4 m/s 757 mmHg 74%
    07:00 +5°C° 0 mm 3 m/s 758 mmHg 75%
    08:00 +5°C° 0 mm 3 m/s 758 mmHg 76%
    09:00 +8°C° 0 mm 3 m/s 758 mmHg 70%
    10:00 +9°C° 0 mm 3 m/s 758 mmHg 64%
    11:00 +12°C° 0 mm 2 m/s 759 mmHg 59%
    12:00 +12°C° 0 mm 2 m/s 758 mmHg 56%
    13:00 +13°C° 0 mm 2 m/s 758 mmHg 53%
    14:00 +14°C° 0 mm 2 m/s 758 mmHg 51%
    15:00 +13°C° 0 mm 2 m/s 758 mmHg 54%
    16:00 +12°C° 0 mm 2 m/s 758 mmHg 58%
    17:00 +11°C° 0 mm 3 m/s 758 mmHg 62%
    18:00 +10°C° 0 mm 2 m/s 758 mmHg 66%
    19:00 +9°C° 0 mm 2 m/s 758 mmHg 71%
    20:00 +8°C° 0 mm 2 m/s 758 mmHg 76%
    21:00 +8°C° 0 mm 2 m/s 758 mmHg 78%
    22:00 +7°C° 0 mm 2 m/s 758 mmHg 79%
    23:00 +7°C° 0 mm 2 m/s 758 mmHg 80%
    Voir plus